SCP
0 1 1 2 2 1 1 1 1 1 1 1 1 1 0 0 0 0 0 0 0 0 0 0 0 0 0 0 0 0 0 0 0 0 0 0 0 0 0 0 0 0 0
0 1 1 2 2 1 1 1 1 1 1 1 1 1 0 0 0 0 0 0 0 0 0 0 0 0 0 0 0 0 0 0 0 0 0 0 0 0 0 0 0 0 0
1 1 1 2 2 2 1 1 1 1 1 1 1 1 1 0 0 0 0 0 0 0 0 0 0 0 0 0 0 0 0 0 0 0 0 0 0 0 0 0 0 0 0
1 1 1 1 2 2 1 1 1 1 1 1 1 1 1 0 0 0 0 0 0 0 0 0 0 0 0 0 0 0 0 0 0 0 0 0 0 0 0 0 0 0 0
1 1 1 1 1 2 1 1 1 1 1 1 1 1 1 0 0 0 0 0 0 0 0 0 0 0 0 0 0 0 0 0 0 0 0 0 0 0 0 0 0 0 0
1 1 1 1 1 1 1 1 1 1 1 1 1 1 1 1 0 0 0 0 0 0 0 0 0 0 0 0 0 0 0 0 0 0 0 0 0 0 0 0 0 0 0
1 1 1 1 1 1 1 1 1 1 1 1 1 1 1 1 0 0 0 0 0 0 0 0 0 0 0 0 0 0 0 0 0 0 0 0 0 0 0 0 0 0 0
1 1 1 1 1 1 1 1 1 1 1 1 1 1 1 1 1 1 0 0 0 0 0 0 0 0 0 0 0 0 0 0 0 0 0 0 0 0 0 0 0 0 0
1 1 1 1 1 1 1 1 1 1 1 1 1 1 1 1 1 1 0 0 0 0 0 0 0 0 0 0 0 0 0 0 0 0 0 0 0 0 0 0 0 0 0
1 1 1 1 1 1 1 1 1 1 1 1 1 1 1 1 1 0 0 0 0 0 0 0 0 0 0 0 0 0 0 0 0 0 0 0 0 0 0 0 0 0 0
0 0 1 1 1 1 1 1 1 1 1 1 1 1 0 0 0 0 0 0 0 0 0 0 0 0 0 0 0 0 0 0 0 0 0 0 0 0 0 0 0 0 0
0 0 0 0 0 0 1 1 1 1 1 1 1 0 0 0 0 0 0 0 0 0 0 0 0 0 0 0 0 0 0 0 0 0 0 0 0 0 0 0 0 0 0
0 0 0 0 0 0 0 0 0 0 0 0 0 0 0 0 0 0 0 0 0 0 0 0 0 0 0 0 0 0 0 0 0 0 0 0 0 0 0 0 0 0 0
0 0 0 0 0 0 0 0 0 0 0 0 0 0 0 0 0 0 0 0 0 0 0 0 0 0 0 0 0 0 0 0 0 0 0 0 0 0 0 0 0 0 0
0 0 0 0 0 0 0 0 0 0 0 0 0 0 0 0 0 0 0 0 0 0 0 0 0 0 0 0 0 0 0 0 0 0 0 0 0 0 0 0 0 0 0
0 0 0 0 0 0 0 0 0 0 0 0 0 0 0 0 0 0 0 0 0 0 0 0 0 0 0 0 0 0 0 0 0 0 0 0 0 0 0 0 0 0 0
0 0 0 0 0 0 0 0 0 0 0 0 0 0 0 0 0 0 0 0 0 0 0 0 0 0 0 0 0 0 0 0 0 0 0 0 0 0 0 0 0 0 0
0 0 0 0 0 0 0 0 0 0 0 0 0 0 0 0 0 0 0 0 0 0 0 0 0 0 0 0 0 0 0 0 0 0 0 0 0 0 0 0 0 0 0
0 0 0 0 0 0 0 0 0 0 0 0 0 0 0 0 0 0 0 0 0 0 0 0 0 0 0 0 0 0 0 0 0 0 0 0 0 0 0 0 0 0 0
0 0 0 0 0 0 0 0 0 0 0 0 0 0 0 0 0 0 0 0 0 0 0 0 0 0 0 0 0 0 0 0 0 0 0 0 0 0 0 0 0 0 0
0 0 0 0 0 0 0 0 0 0 0 0 0 0 0 0 0 0 0 0 0 0 0 0 0 0 0 0 0 0 0 0 0 0 0 0 0 0 0 0 0 0 0
0 0 0 0 0 0 0 0 0 0 0 0 0 0 0 0 0 0 0 0 0 0 0 0 0 0 0 0 0 0 0 0 0 0 0 0 0 0 0 0 0 0 0
0 0 0 0 0 0 0 0 0 0 0 0 0 0 0 0 0 0 0 0 0 0 0 0 0 0 0 0 0 0 0 0 0 0 0 0 0 0 0 0 0 0 0
0 0 0 0 0 0 0 0 0 0 0 0 0 0 0 0 0 0 0 0 0 0 0 0 0 0 0 0 0 0 0 0 0 0 0 0 0 0 0 0 0 0 0
0 0 0 0 0 0 0 0 0 0 0 0 0 0 0 0 0 0 0 0 0 0 0 0 0 0 0 0 0 0 0 0 0 0 0 0 0 0 0 0 0 0 0
0 0 0 0 0 0 0 0 0 0 0 0 0 0 0 0 0 0 0 0 0 0 0 0 0 0 0 0 0 0 0 0 0 0 0 0 0 0 0 0 0 0 0
Wind_Speed
3 7 14 16 17 17 16 16 16 16 16 16 17 17 18 17 17 16 16 15 15 15 15 16 16 15 16 16 15 14 14 14 14 14 13 13 14 14 14 14 12 8 14
5 8 13 15 16 17 16 15 15 15 15 16 17 17 17 17 17 16 16 16 15 15 15 15 15 15 15 15 14 14 13 13 13 13 11 10 11 13 13 12 12 8 13
5 8 11 14 15 16 16 15 15 15 15 15 16 17 17 17 17 16 16 16 15 15 15 15 15 15 15 14 13 13 12 12 12 11 9 5 6 11 12 11 11 12 12
6 7 8 12 15 15 15 15 15 15 15 15 16 16 17 17 16 16 16 15 15 15 14 14 14 14 13 13 12 12 12 11 10 9 5 3 4 9 10 10 10 11 11
4 5 8 12 14 15 15 15 15 15 15 15 15 15 16 16 16 16 15 14 14 14 14 14 14 13 12 11 11 11 11 10 9 7 4 3 3 8 9 9 9 9 9
3 4 7 11 13 14 15 15 15 15 16 15 15 15 15 16 16 16 15 14 13 13 13 14 13 12 11 11 10 10 10 10 7 4 3 3 2 7 8 8 8 8 8
3 3 5 10 12 13 14 14 15 15 15 15 15 15 15 16 16 15 14 14 13 13 13 13 12 11 10 10 10 10 10 9 5 3 2 2 2 6 7 7 7 7 7
3 3 4 8 10 11 12 13 14 14 14 15 15 15 15 15 15 15 14 14 14 13 13 12 12 11 10 9 9 9 9 7 5 3 2 1 3 5 5 5 5 5 5
2 2 2 4 6 10 11 11 11 12 12 12 13 13 13 13 14 14 14 14 13 13 12 11 11 10 9 8 9 9 7 6 4 2 2 1 4 4 4 4 4 4 4
2 2 2 2 3 5 7 10 10 10 10 11 11 11 11 11 12 13 12 12 12 12 11 10 10 9 8 7 7 7 6 5 2 2 1 2 5 5 4 4 4 3 3
2 2 2 2 2 3 4 7 8 8 9 9 8 10 10 7 7 8 9 10 10 10 10 9 9 8 6 5 6 6 4 2 2 1 2 4 5 5 5 4 4 3 3
4 4 3 2 3 3 4 4 4 4 5 5 5 6 5 5 5 6 8 9 9 8 8 8 7 6 4 2 3 4 2 2 2 2 3 6 6 6 5 5 5 4 4
5 5 4 4 3 3 3 3 2 2 3 4 5 6 5 4 4 4 4 5 5 6 4 4 3 2 2 2 2 2 2 2 2 2 3 6 7 6 6 6 6 5 5
5 6 5 5 4 3 3 3 3 3 3 4 5 6 5 4 4 4 3 3 3 3 3 2 2 2 2 2 3 2 3 2 2 2 3 6 7 7 7 7 6 6 6
5 6 6 6 6 4 3 3 4 4 4 4 5 6 6 5 5 5 4 4 4 3 3 3 2 3 2 2 2 3 3 3 3 3 3 6 7 7 8 8 8 7 7
5 6 6 6 6 5 4 3 4 4 4 4 4 6 7 6 5 5 5 5 4 4 3 3 3 3 2 2 2 3 3 3 3 4 3 4 6 7 8 8 8 8 8
4 4 5 6 6 6 5 4 3 3 4 4 4 5 7 6 7 6 5 5 5 4 4 3 3 2 2 2 3 3 3 4 4 4 4 3 3 6 7 9 8 8 7
3 3 4 5 5 5 4 3 2 3 3 3 4 4 6 7 7 6 5 5 5 5 4 4 3 3 2 2 3 3 3 3 4 4 3 3 3 3 5 7 7 7 7
2 2 3 3 4 5 4 3 3 2 3 3 3 4 5 7 8 6 5 5 5 4 4 4 3 3 3 3 3 3 2 3 3 4 4 4 4 4 3 4 6 6 7
2 2 2 2 3 4 3 3 2 2 2 2 3 4 5 5 7 6 5 5 5 5 4 4 4 3 3 2 2 2 2 3 3 4 5 4 4 4 4 4 4 4 6
2 2 2 2 3 3 3 3 2 2 2 2 2 3 4 5 6 6 5 6 6 5 5 5 4 4 2 2 1 1 2 2 3 4 4 3 4 4 4 4 3 3 3
2 2 2 2 2 3 3 2 2 2 1 2 1 2 2 3 4 5 5 5 6 5 5 5 4 3 2 3 2 1 2 2 3 4 4 4 5 3 4 5 4 4 3
3 2 2 2 2 2 3 3 3 2 1 1 1 1 2 2 3 3 5 5 5 5 5 6 6 6 4 4 3 3 2 4 2 2 4 4 4 4 4 4 5 5 5
3 2 3 2 2 3 3 3 4 2 1 1 1 1 1 1 2 3 4 5 5 4 5 6 6 5 5 4 3 3 3 2 2 3 2 3 3 4 5 4 5 5 5
4 4 3 3 3 3 3 2 3 2 2 1 1 1 1 1 2 2 3 4 4 4 5 5 5 5 5 5 4 3 3 2 3 3 4 3 3 3 4 4 4 3 4
5 5 4 4 4 3 2 2 2 3 3 2 1 1 1 2 2 3 3 4 4 4 5 5 6 6 6 6 5 4 4 3 4 3 4 4 4 3 3 3 3 3 3
Wind_Direction
188 171 174 166 164 161 157 153 149 145 142 142 142 141 141 141 139 136 133 130 127 125 122 120 119 117 113 109 105 100 96 92 90 89 86 85 87 86 84 80 76 70 76
172 170 173 165 164 162 159 156 152 149 147 146 145 144 144 143 142 140 137 135 132 129 125 123 122 118 114 110 107 103 98 95 93 90 83 82 88 90 88 85 82 80 78
156 168 172 167 165 163 161 159 155 153 151 150 149 149 147 146 145 143 140 138 136 132 129 126 123 119 116 113 110 107 103 101 99 94 84 74 88 93 91 88 86 83 81
156 163 169 170 168 166 163 163 160 159 157 155 154 153 152 150 149 146 143 141 138 134 131 128 125 122 120 118 115 111 108 106 103 96 79 70 81 96 94 91 87 84 82
150 162 170 172 172 170 166 165 164 164 162 160 159 157 155 153 151 149 145 141 138 135 133 131 129 127 125 122 119 117 114 111 103 90 80 72 74 98 97 94 90 87 84
142 158 172 173 177 174 170 167 168 168 166 165 164 162 159 157 154 150 146 142 139 138 138 138 136 133 130 126 124 122 119 115 103 93 85 76 79 102 101 100 98 92 88
147 154 174 175 176 176 175 174 172 172 171 170 169 167 165 162 158 153 148 145 145 145 145 144 142 140 136 133 130 127 124 123 115 108 107 101 116 116 112 108 105 100 92
152 157 172 180 180 175 175 175 178 176 174 174 173 171 169 165 160 155 152 152 153 154 153 151 149 147 142 140 138 134 131 129 126 128 132 148 146 129 121 115 113 109 103
154 149 167 177 186 184 180 177 180 179 175 175 174 172 169 164 161 159 158 160 160 160 159 157 155 152 149 147 145 143 141 133 132 147 161 173 162 150 140 135 129 122 115
153 158 164 166 181 186 184 182 179 180 179 174 172 168 164 162 161 161 162 164 166 166 165 163 161 159 154 151 151 149 144 130 145 160 173 195 183 172 166 159 151 146 139
185 176 174 155 157 177 183 180 176 176 176 171 166 163 159 158 158 160 163 166 169 169 169 169 169 164 151 154 156 152 140 146 162 182 203 211 196 190 183 179 177 174 174
219 198 187 169 172 172 188 172 170 170 167 168 166 162 159 154 157 156 164 167 169 168 171 174 173 161 136 140 153 145 147 168 179 199 223 221 209 204 199 196 195 198 202
218 211 198 181 183 173 177 169 163 156 157 160 164 161 154 152 151 150 156 161 162 162 163 169 160 146 147 156 160 168 176 181 196 214 230 231 223 215 211 211 209 210 212
218 214 200 189 185 176 171 172 164 161 162 164 166 164 162 163 161 159 161 161 160 161 161 158 156 161 168 176 180 189 196 201 210 218 232 232 233 227 221 221 221 221 221
223 212 200 190 189 179 167 172 167 170 172 172 170 174 171 171 170 166 168 167 168 165 168 167 168 175 186 189 197 199 211 218 222 224 237 231 233 234 231 229 229 230 231
226 215 198 191 187 179 178 179 173 172 173 175 178 179 176 175 174 174 174 175 179 177 177 178 178 183 196 202 219 220 224 225 227 227 231 236 234 236 238 237 239 238 239
227 214 196 187 181 181 180 183 176 169 171 183 185 180 182 179 177 177 182 185 187 179 174 172 171 174 194 213 229 230 229 230 230 230 229 229 231 234 238 241 243 244 246
216 208 198 190 178 175 178 175 175 172 171 183 184 176 183 182 177 177 184 189 182 176 176 180 180 186 204 214 233 236 229 228 232 232 230 230 228 230 234 240 244 248 249
209 205 196 177 175 177 173 164 161 167 171 180 186 179 185 185 181 178 183 186 177 178 182 189 188 186 203 216 228 238 235 234 234 231 229 230 228 225 224 234 234 241 245
161 160 171 160 160 155 149 140 137 149 175 173 186 187 184 186 184 180 178 182 179 183 187 191 193 198 202 204 233 260 260 249 239 232 231 231 227 226 224 224 229 239 239
91 114 144 154 152 140 142 145 153 173 181 171 180 180 184 184 184 185 185 184 185 190 194 192 190 197 201 160 145 285 280 244 238 238 232 229 228 226 223 222 221 225 240
92 105 118 152 151 148 148 143 141 145 160 170 185 174 175 186 189 190 190 188 188 189 193 195 185 187 193 177 168 215 278 283 246 232 228 225 228 219 222 225 220 222 222
55 69 101 127 133 130 136 127 120 113 104 132 176 179 174 179 190 196 200 193 190 189 198 202 196 192 200 202 192 184 205 241 280 244 227 229 225 225 227 223 222 221 218
44 56 88 86 92 102 114 125 140 149 158 195 202 202 179 178 193 207 209 197 194 195 200 205 203 206 199 206 216 221 225 211 236 271 260 232 222 229 229 229 224 221 215
36 36 55 64 66 82 98 127 143 150 157 175 169 184 214 225 217 219 223 209 204 204 208 208 207 209 207 210 210 215 233 245 237 239 265 264 248 236 232 227 217 219 221
34 32 38 56 51 65 84 95 128 156 161 164 180 198 216 223 213 215 220 216 212 211 211 215 214 214 216 219 223 220 215 214 224 228 251 263 261 257 245 235 217 213 218